Location: C�mpuri de-Sus
(45.9500°N, 22.5500°E)
Time: 07:20:07
(UTC+00:00)

Cosmos 839 Rocket - Pass Details

Date: 09 December 2023
Orbit: 960 x 2092 km, 65.9° (Epoch: 04 March)

Event Time Altitude Azimuth Distance (km) Brightness Sun altitude
Exits shadow 04:04:46 23° 298° (WNW) 3,581 6.3 -19.0°
Maximum altitude 04:10:18 32° 338° (NNW) 3,041 6.2 -18.1°
Drops below altitude 10° 04:19:59 10° 39° (NE) 4,183 7.6 -16.5°
Sets 04:23:35 0° 49° (NE) 5,025 8.2 -15.9°
